Flag for U.S.A. Weather past 2 weeks in Pembroke Pines, Florida, U.S.A.

Now
72 °F

Passing clouds.


Feels Like: 73 °F
Forecast: 68 / 81 °F
Wind: 3 mph from Southeast

Location: North Perry Airport

Current Time: Dec 21, 2014 at 11:20:34 PM

Latest Report: Dec 21, 2014 at 9:53 PM


Visibility: 10 mi

Pressure: 30.06 "Hg

Humidity: 76%

Dew point: 64 °F

Location of Pembroke PinesLocation

Historic Weather in Pembroke Pines — Graph

°F

Pembroke Pines temperature yesterday

Maximum temperature yesterday: 78 °F (at 10:53 AM)
Minimum temperature yesterday: 58 °F (at 6:53 AM)
Average temperature yesterday: 68 °F

Past Weeks' High & Low Weather Summary

 TemperatureHumidityPressure
High79 °F (Dec 17, 2:53 PM)96% (Dec 8, 3:53 AM)30.26 "Hg (Dec 8, 3:53 AM)
Low47 °F (Dec 11, 4:53 AM)33% (Dec 10, 1:53 PM)29.98 "Hg (Dec 9, 1:53 PM)
Average65 °F70%30.10 "Hg
* Reported Dec 6 9:53 PM — Dec 21 9:53 PM, Pembroke Pines, Weather by CustomWeather, © 2014

Note: Actual official high and low records may vary slightly from our data, if they occured in-between our weather recording intervals... More about our weather records

Advertising

Pembroke Pines weather history for previous 24 hours

 ConditionsComfort  
Time TempWeatherWind HumidityBarometerVisibility
9:53 PM
Dec 21
72 °FPassing clouds.3 mph76%30.06 "Hg10 mi
8:53 PM73 °FPassing clouds.3 mph74%30.05 "Hg10 mi
7:53 PM73 °FPassing clouds.5 mph74%30.05 "Hg10 mi
6:53 PM73 °FClear.3 mph74%30.05 "Hg10 mi
5:53 PM74 °FClear.6 mph69%30.04 "Hg10 mi
4:53 PM76 °FSunny.9 mph67%30.04 "Hg10 mi
3:53 PM77 °FSunny.10 mph62%30.03 "Hg10 mi
2:53 PM78 °FSunny.13 mph62%30.03 "Hg10 mi
1:53 PM79 °FScattered clouds.8 mph58%30.05 "Hg10 mi
12:53 PM79 °FBroken clouds.9 mph58%30.08 "Hg10 mi
11:53 AM79 °FScattered clouds.9 mph60%30.10 "Hg10 mi
10:53 AM78 °FPartly sunny.8 mph62%30.12 "Hg10 mi
9:53 AM77 °FSunny.9 mph66%30.12 "Hg10 mi
8:53 AM73 °FSunny.No wind79%30.11 "Hg10 mi
7:53 AM65 °FSunny.No wind94%30.10 "Hg10 mi
6:53 AM63 °FPassing clouds.No wind90%30.09 "Hg10 mi
5:53 AM63 °FClear.No wind93%30.08 "Hg10 mi
4:53 AM62 °FClear.No wind93%30.06 "Hg10 mi
3:53 AM64 °FClear.No wind90%30.06 "Hg10 mi
2:53 AM63 °FPassing clouds.No wind90%30.06 "Hg10 mi
1:53 AM64 °FClear.No wind87%30.07 "Hg10 mi
12:53 AM65 °FPassing clouds.No wind87%30.09 "Hg10 mi
11:53 PM
Dec 20
65 °FClear.No wind87%30.10 "Hg10 mi
Weather by CustomWeather, © 2014

See weather overviewHow to use our weather pages